Gage, OK

7:34 PM CDT on October 23, 2017 (GMT -0500)
Gage

Weather History for KGAG - November, 2012

Change the Weather History Date:

Friday, November 23, 2012

  Actual Average Record
Temperature  
Mean Temperature 40 °F -  
Max Temperature 53 °F 53 °F 75 °F (2005)
Min Temperature 28 °F 28 °F 7 °F (1972)
Degree Days  
Heating Degree Days 24    
Moisture  
Dew Point 20 °F    
Average Humidity 49    
Maximum Humidity 73    
Minimum Humidity 23    
Precipitation  
Precipitation 0.00 in - - ()
Sea Level Pressure  
Sea Level Pressure 30.49 in    
Wind  
Wind Speed 7 mph (North)    
Max Wind Speed 12 mph    
Max Gust Speed 18 mph    
Visibility 10 miles    
Events      
Averages and records for this station are not official NWS values.
T = Trace of Precipitation, MM = Missing Value Source: NWS Daily Summary

Daily Weather History Graph

Daily Weather History Graph

Search for Another Location

Airport or City:

Trip Planner

Search our weather history database for the weather conditions in past years. The results will help you decide how hot, cold, wet, or windy it might be!

Date:

Astronomy

Nov. 23, 2012 Rise Set
Actual Time 7:24 AM CST 5:26 PM CST
Civil Twilight 6:56 AM CST 5:54 PM CST
Nautical Twilight 6:25 AM CST 6:25 PM CST
Astronomical Twilight 5:54 AM CST 6:56 PM CST
Moon 2:35 PM CST (11/23) 2:52 AM CST (11/23)
Length of Visible Light 10h 57m
Length of Day
10h 01m
Waxing Gibbous, 80% of the Moon is Illuminated
Nov 23
Waxing Gibbous
Nov 28
Full
Dec 6
Last Quarter
Dec 13
New
Dec 19
First Quarter

Hourly Weather History & Observations

Time (CST) Temp. Windchill Dew Point Humidity Pressure Visibility Wind Dir Wind Speed Gust Speed Precip Events Conditions
12:53 AM 43.0 °F 38.2 °F 30.0 °F 60% 30.36 in 10.0 mi North 8.1 mph - N/A   Clear
1:53 AM 41.0 °F 35.2 °F 28.0 °F 60% 30.38 in 10.0 mi North 9.2 mph - N/A   Clear
2:53 AM 39.0 °F 33.4 °F 28.0 °F 65% 30.41 in 10.0 mi North 8.1 mph - N/A   Clear
3:53 AM 37.0 °F 30.4 °F 26.1 °F 65% 30.43 in 10.0 mi North 9.2 mph - N/A   Clear
4:53 AM 35.1 °F 29.3 °F 25.0 °F 67% 30.46 in 10.0 mi North 6.9 mph - N/A   Clear
5:53 AM 33.1 °F 27.7 °F 24.1 °F 70% 30.49 in 10.0 mi North 5.8 mph - N/A   Clear
6:53 AM 32.0 °F 25.6 °F 24.1 °F 73% 30.51 in 10.0 mi North 6.9 mph - N/A   Clear
7:53 AM 33.1 °F - 23.0 °F 66% 30.55 in 10.0 mi Calm Calm - N/A   Clear
8:53 AM 37.9 °F 31.5 °F 23.0 °F 55% 30.57 in 10.0 mi North 9.2 mph - N/A   Clear
9:53 AM 44.1 °F 39.0 °F 21.0 °F 40% 30.58 in 10.0 mi NNE 9.2 mph - N/A   Clear
10:53 AM 48.0 °F - 21.9 °F 36% 30.58 in 10.0 mi NNE 8.1 mph - N/A   Clear
11:53 AM 50.0 °F - 19.0 °F 29% 30.56 in 10.0 mi North 11.5 mph 18.4 mph N/A   Clear
12:53 PM 50.0 °F - 19.0 °F 29% 30.54 in 10.0 mi NNE 9.2 mph 17.3 mph N/A   Clear
1:53 PM 51.1 °F - 18.0 °F 27% 30.52 in 10.0 mi North 8.1 mph - N/A   Clear
2:53 PM 53.1 °F - 17.1 °F 24% 30.51 in 10.0 mi North 9.2 mph - N/A   Clear
3:53 PM 52.0 °F - 15.1 °F 23% 30.49 in 10.0 mi North 8.1 mph - N/A   Clear
4:53 PM 50.0 °F - 16.0 °F 26% 30.49 in 10.0 mi North 5.8 mph - N/A   Clear
5:53 PM 44.1 °F - 16.0 °F 32% 30.50 in 10.0 mi Calm Calm - N/A   Clear
6:53 PM 36.0 °F 31.1 °F 16.0 °F 44% 30.51 in 10.0 mi SE 5.8 mph - N/A   Clear
7:53 PM 32.0 °F 25.6 °F 17.1 °F 54% 30.51 in 10.0 mi SSE 6.9 mph - N/A   Clear
8:53 PM 32.0 °F - 16.0 °F 52% 30.48 in 10.0 mi Calm Calm - N/A   Clear
9:53 PM 28.9 °F 25.2 °F 16.0 °F 58% 30.46 in 10.0 mi SSW 3.5 mph - N/A   Clear
10:53 PM 28.0 °F - 16.0 °F 61% 30.44 in 10.0 mi Calm Calm - N/A   Clear
11:53 PM 28.0 °F - 16.0 °F 61% 30.43 in 10.0 mi Calm Calm - N/A   Clear